Regional Weather Roundup
Issued by NWS

Home | Current Version | Previous Version | Graphics & Text | Print | Product List | Glossary On
Versions: 1 2 3 4 5 6 7 8 9 10 11 12 13 14 15 16 17 18 19 20 21 22 23 24 25 26 27
000
ASUS45 KCYS 280610
RWRWY

WYOMING REGIONAL WEATHER ROUNDUP
NATIONAL WEATHER SERVICE CHEYENNE WY
1200 AM MDT THU APR 28 2016

NOTE:  "FAIR" INDICATES FEW OR NO CLOUDS BELOW 12,000 FEET
WITH NO SIGNIFICANT WEATHER AND/OR OBSTRUCTIONS TO VISIBILITY.

WYZ001-280700-
YELLOWSTONE NATIONAL PARK

CITY           SKY/WX    TMP DP  RH WIND       PRES   REMARKS
LK YELLOWSTONE   N/A     31  22  69 CALM      29.89F
6HR MIN TEMP:  31; 6HR MAX TEMP:  37;

W YELLOWSTONE  NOT AVBL

$$
WYZ002>013-054>058-071-098>099-280700-
NORTHERN WYOMING

CITY           SKY/WX    TMP DP  RH WIND       PRES   REMARKS
JACKSON        MOCLDY    37  27  65 N16       29.82S WCI  28
CODY           CLOUDY    30  30 100 N7        29.96S WCI  23
GREYBULL       CLOUDY    38  27  64 N16       29.94S WCI  29
6HR MIN TEMP:  38; 6HR MAX TEMP:  44;

WORLAND        MIX PCPN  35  33  92 N5        29.96S WCI  31
6HR MIN TEMP:  35; 6HR MAX TEMP:  44; 6HR PCP:  0.01;

SHERIDAN       FLURRIES  33  32  96 W7        29.99F WCI  27
6HR MIN TEMP:  33; 6HR MAX TEMP:  36; 6HR PCP:  0.05;

BUFFALO          N/A     31  29  92 MISG      29.96F
6HR MIN TEMP:  31; 6HR MAX TEMP:  34; 6HR PCP:  0.02;

GILLETTE       LGT SNOW  30  32 100 NE8       29.96S WCI  22
6HR MIN TEMP:  30; 6HR MAX TEMP:  35; 6HR PCP:  0.08;

HULETT         LGT SNOW  32  32 100 N5        29.96R WCI  27
NEWCASTLE      FAIR      32  30  93 NW7       29.94R WCI  26

$$
WYZ014>020-022>026-101>103-280700-
CENTRAL WYOMING

CITY           SKY/WX    TMP DP  RH WIND       PRES   REMARKS
BIG PINEY      CLOUDY    33  28  81 SW3       29.87S
6HR MIN TEMP:  32; 6HR MAX TEMP:  48;

PINEDALE       CLOUDY    34  30  86 CALM      29.87S
DUBOIS         CLOUDY    30  28  93 E14       29.88S WCI  20
LANDER         CLOUDY    35  31  85 E6        29.92R WCI  30
6HR MIN TEMP:  35; 6HR MAX TEMP:  38;

RIVERTON       CLOUDY    36  31  82 NE7       29.93S WCI  30
6HR MIN TEMP:  36; 6HR MAX TEMP:  40; 6HR PCP: TRACE;

CASPER         CLOUDY    32  28  85 NE6       29.94S WCI  26
6HR MIN TEMP:  32; 6HR MAX TEMP:  36;

DOUGLAS        CLOUDY    33  31  92 N10       29.95R WCI  25
6HR MIN TEMP:  33; 6HR MAX TEMP:  36; 6HR PCP: TRACE;


$$
WYZ021-027>030-104>119-280700-
SOUTHERN WYOMING

CITY           SKY/WX    TMP DP  RH WIND       PRES   REMARKS
EVANSTON       FAIR      37  31  78 NE7       29.78F WCI  32
6HR MIN TEMP:  37; 6HR MAX TEMP:  48;

KEMMERER         N/A     32  32 100 NE9       29.85R WCI  24
FORT BRIDGER   CLEAR     34  34 100 E10       29.85S WCI  26
ROCK SPRINGS   MOCLDY    33  26  75 E14       29.87S WCI  23
6HR MIN TEMP:  33; 6HR MAX TEMP:  45;

DIXON          FAIR      33  30  88 NE7       29.87S WCI  26
RAWLINS        FAIR      30  25  81 E7        29.91S WCI  23
6HR MIN TEMP:  30; 6HR MAX TEMP:  43;

SARATOGA       CLOUDY    30  28  93 CALM      29.90S
LARAMIE        CLOUDY    26  24  92 N5        29.90R WCI  20
6HR MIN TEMP:  26; 6HR MAX TEMP:  33;

CHEYENNE       FAIR      29  26  89 N9G17     29.90R WCI  20
6HR MIN TEMP:  29; 6HR MAX TEMP:  40;

TORRINGTON     CLOUDY    37  31  78 N9        29.92R WCI  30
6HR MIN TEMP:  37; 6HR MAX TEMP:  45;

PINE BLUFFS    FAIR      32  30  93 N8        29.90S WCI  25

$$




USA.gov is the U.S. government's official web portal to all federal, state and local government web resources and services.